#timestamp,LO_Frequency,Hit,StdDev 
1514527215.0,286047004.5,N
1514527215.9,286047004.5,N
1514527235.8,286046999.7,N
1514527255.6,286046999.9,N
1514527275.4,286047001.1,N
1514527295.2,286047000.7,N
1514527315.1,286046997.1,N
1514527316.0,286046997.1,N
1514527335.8,286046996.3,N
1514527355.6,286046993.5,N
1514527375.5,286046993.0,N
1514527395.3,286046994.5,N
1514527415.1,286046991.7,N
1514527435.9,286046991.0,N
1514527455.7,286046990.4,N
1514527475.5,286046990.9,N
1514527495.4,286046990.6,N
1514527515.2,286046991.3,N
1514527535.0,286046987.1,N
1514527535.9,286046987.1,N
1514527555.7,286046985.5,N
1514527575.6,286046987.2,N
1514527595.4,286046986.9,N
1514527615.2,286046990.2,N
1514527635.1,286046992.5,N
1514527636.0,286046992.5,N
1514527655.8,286046990.2,N
1514527675.6,286046990.9,N
1514527695.5,286046992.7,N
1514527715.3,286046994.1,N
1514527735.1,286046993.9,N
1514527755.9,286046993.6,N
1514527775.7,286046996.2,N
1514527795.5,286046993.6,N
1514527815.4,286046994.6,N
1514527835.2,286046995.7,N
1514527855.0,286046996.0,N
1514527855.9,286046996.0,N
1514527875.8,286046993.6,N
1514527895.6,286046993.7,N
1514527915.4,286046991.7,N
1514527935.2,286046996.0,N
1514527955.1,286046996.2,N
1514527956.0,286046996.2,N
1514527975.8,286046992.4,N
1514527995.6,286046994.6,N
1514528015.5,286046993.4,N
1514528035.3,286046995.9,N
1514528055.1,286046991.7,N
1514528075.9,286046990.1,Y
1514528095.7,286046995.3,P
1514528115.5,286046995.5,P
1514528135.4,286046999.1,N
1514528155.2,286046993.4,N
1514528175.0,286046996.1,N
1514528175.9,286046996.1,N
1514528195.8,286046995.1,N
1514528215.6,286047002.6,N
1514528235.4,286047000.7,N
1514528255.3,286046999.0,N
1514528275.1,286046999.6,N
1514528276.0,286046999.6,N
1514528295.8,286046999.5,N
1514528315.7,286046998.6,N
1514528335.5,286046999.0,N
1514528355.3,286046997.6,N
1514528375.1,286046997.1,N
1514528395.9,286046996.3,N
1514528415.7,286046996.4,N
1514528435.5,286046995.0,N
1514528455.4,286046998.3,N
1514528475.2,286046996.7,N
1514528495.0,286046997.4,N
1514528495.9,286046997.4,N
1514528515.8,286046997.6,N
1514528535.6,286046990.7,Y
1514528555.4,286046992.7,P
1514528575.3,286046992.8,P
1514528595.1,286046990.3,P
1514528596.0,286046990.3,Y
1514528615.8,286046996.3,P
1514528635.7,286046997.6,N
1514528655.5,286046994.1,P
1514528675.3,286046991.9,Y
1514528695.2,286047002.5,P
1514528715.0,286047002.6,N
1514528715.9,286047002.6,N
1514528735.7,286047001.5,N
1514528755.6,286047003.4,N
1514528775.4,286047004.1,N
1514528795.2,286047005.2,N
1514528815.1,286047004.8,N
1514528816.0,286047004.8,N
1514528835.8,286047013.8,Y
1514528855.6,286047010.7,P
1514528875.5,286047008.1,N
1514528895.3,286047007.5,N
1514528915.1,286047006.4,N
1514528935.9,286047005.7,N
1514528955.7,286047004.5,N
1514528975.5,286047007.1,N
1514528995.4,286047007.5,Y
1514529015.2,286047000.8,P
1514529035.0,286047003.5,N
1514529035.9,286047003.5,N
1514529055.8,286047007.6,Y
1514529075.6,286047003.6,P
1514529095.4,286047004.8,P
1514529115.3,286047011.0,P
1514529135.1,286047014.6,Y
1514529155.8,286047011.2,P
1514529175.7,286047015.1,P
1514529195.5,286047017.9,P
1514529215.3,286047012.5,N
1514529235.2,286047017.2,Y
1514529255.9,286047004.2,P
1514529275.7,286047001.7,N
1514529295.6,286047006.8,N
1514529315.4,286047008.0,N
1514529335.2,286047006.1,N
1514529355.1,286047010.4,Y
1514529356.0,286047010.4,P
1514529375.8,286047002.9,N
1514529395.6,286047007.3,N
1514529415.5,286047007.7,N
1514529435.3,286047008.4,Y
1514529455.1,286047002.0,P
1514529475.9,286047002.2,N
1514529495.7,286047002.2,N
1514529515.5,286047000.3,N
1514529535.3,286047000.5,N
1514529555.2,286047001.2,N
1514529575.0,286047000.2,N
1514529575.9,286047000.2,N
1514529595.7,286046998.2,N
1514529615.6,286046999.0,N
1514529635.4,286046998.0,N
1514529655.2,286046994.8,N
1514529675.1,286046992.7,N
1514529676.0,286046992.7,N
1514529695.8,286046991.0,N
1514529715.6,286046992.6,N
1514529735.5,286046991.2,N
1514529755.3,286046987.1,N
1514529775.1,286046988.2,N
1514529795.9,286046985.0,N
1514529815.7,286046985.0,N
1514529835.5,286046983.7,N
1514529855.3,286046986.8,N
1514529875.2,286046985.7,N
1514529895.0,286046985.9,N
1514529895.9,286046985.9,N
1514529915.7,286046982.6,N
1514529935.6,286046982.8,N
1514529955.4,286046984.9,N
1514529975.2,286046986.4,N
1514529995.1,286046987.6,N
1514529996.0,286046987.6,N
1514530015.8,286046990.8,N
1514530035.6,286046993.1,N
1514530055.5,286046988.9,N
1514530075.3,286046992.5,N
1514530095.1,286046993.9,N
1514530115.9,286046993.6,N
1514530135.7,286046994.4,N
1514530155.5,286046991.8,N
1514530175.3,286046992.1,N
1514530195.2,286046990.5,N
1514530215.0,286046991.1,N
1514530215.9,286046991.1,N
1514530235.7,286046994.3,N
1514530255.6,286046992.2,N
1514530275.4,286046997.8,N
1514530295.2,286046994.1,N
1514530315.1,286046992.3,N
1514530316.0,286046992.3,N
1514530335.8,286046991.8,N
1514530355.6,286046994.7,N
1514530375.5,286046993.2,N
1514530395.3,286046993.2,N
1514530415.1,286046992.8,N
1514530435.9,286046996.0,N
1514530455.7,286046993.6,N
1514530475.5,286046990.6,N
1514530495.4,286046994.1,N
1514530515.2,286046992.5,Y
1514530535.0,286047004.4,P
1514530535.9,286047004.4,N
1514530555.8,286047005.7,N
1514530575.6,286047007.1,N
1514530595.4,286047006.6,N
1514530615.2,286047004.0,N
1514530635.1,286047000.3,N
1514530636.0,286047000.3,N
1514530655.8,286047004.4,N
1514530675.6,286047003.8,N
1514530695.5,286047003.4,N
1514530715.3,286047003.3,N
1514530735.1,286047006.0,N
1514530755.9,286047004.8,N
1514530775.7,286047003.8,N
1514530795.5,286046999.7,N
